Pecos, TX

1:26 AM CDT on April 25, 2017 (GMT -0500)
Pecos Municipal

Weather History for KPEQ - March, 2012

Change the Weather History Date:

Saturday, March 17, 2012

  Actual Average Record
Temperature  
Mean Temperature 68 °F -  
Max Temperature 89 °F 73 °F 95 °F (2011)
Min Temperature 47 °F 38 °F 24 °F (2005)
Cooling Degree Days 3    
Growing Degree Days 18 (Base 50)    
Moisture  
Dew Point 43 °F    
Average Humidity 62    
Maximum Humidity 95    
Minimum Humidity 9    
Precipitation  
Precipitation 0.00 in - - ()
Sea Level Pressure  
Sea Level Pressure 29.89 in    
Wind  
Wind Speed 5 mph (South)    
Max Wind Speed 23 mph    
Max Gust Speed 34 mph    
Visibility 7 miles    
Events Fog , Rain    
Averages and records for this station are not official NWS values.
T = Trace of Precipitation, MM = Missing Value Source: NWS Daily Summary

Daily Weather History Graph

Daily Weather History Graph

Search for Another Location

Airport or City:

Trip Planner

Search our weather history database for the weather conditions in past years. The results will help you decide how hot, cold, wet, or windy it might be!

Date:

Astronomy

Mar. 17, 2012 Rise Set
Actual Time 8:00 AM CDT 8:03 PM CDT
Civil Twilight 7:36 AM CDT 8:28 PM CDT
Nautical Twilight 7:08 AM CDT 8:56 PM CDT
Astronomical Twilight 6:40 AM CDT 9:24 PM CDT
Moon 4:47 AM CDT (3/17) 3:45 PM CDT (3/17)
Length of Visible Light 12h 51m
Length of Day
12h 03m
Waning Crescent, 23% of the Moon is Illuminated
Mar 17
Waning Crescent
Mar 22
New
Mar 30
First Quarter
Apr 6
Full
Apr 13
Last Quarter

Hourly Weather History & Observations

Time (CDT) Temp. Dew Point Humidity Pressure Visibility Wind Dir Wind Speed Gust Speed Precip Events Conditions
12:15 AM 64.2 °F 56.7 °F 76% 29.90 in 10.0 mi East 8.1 mph - N/A   Clear
12:35 AM 63.5 °F 56.5 °F 78% 29.90 in 10.0 mi East 4.6 mph - N/A   Clear
12:55 AM 62.6 °F 55.9 °F 79% 29.89 in 10.0 mi Calm Calm - N/A   Clear
1:15 AM 61.2 °F 55.2 °F 81% 29.89 in 10.0 mi Calm Calm - N/A   Clear
1:35 AM 59.2 °F 54.0 °F 83% 29.89 in 10.0 mi WSW 5.8 mph - N/A   Clear
1:55 AM 56.7 °F 52.5 °F 86% 29.90 in 10.0 mi WNW 6.9 mph - N/A   Clear
2:15 AM 55.4 °F 51.8 °F 88% 29.89 in 10.0 mi West 6.9 mph - N/A   Clear
2:35 AM 55.4 °F 52.3 °F 89% 29.90 in 10.0 mi West 6.9 mph - N/A   Clear
2:55 AM 54.9 °F 52.0 °F 90% 29.90 in 7.0 mi WNW 9.2 mph - N/A   Clear
3:15 AM 54.9 °F 52.3 °F 91% 29.89 in 7.0 mi WNW 9.2 mph - N/A   Clear
3:35 AM 55.6 °F 53.1 °F 91% 29.90 in 7.0 mi Calm Calm - N/A   Clear
3:55 AM 54.0 °F 51.3 °F 91% 29.91 in 7.0 mi SE 3.5 mph - N/A   Clear
4:15 AM 52.0 °F 49.6 °F 92% 29.90 in 5.0 mi SSW 5.8 mph - N/A   Clear
4:35 AM 51.1 °F 48.9 °F 92% 29.90 in 5.0 mi South 4.6 mph - N/A   Clear
4:55 AM 50.0 °F 48.0 °F 93% 29.90 in 5.0 mi Calm Calm - N/A   Clear
5:15 AM 48.9 °F 46.8 °F 92% 29.90 in 0.8 mi Calm Calm - N/A   Mostly Cloudy
5:35 AM 48.0 °F 46.0 °F 93% 29.91 in 0.2 mi Calm Calm - N/A Fog Fog
5:55 AM 48.0 °F 46.2 °F 93% 29.91 in 0.2 mi Calm Calm - N/A Fog Fog
6:15 AM 48.0 °F 46.2 °F 93% 29.91 in 0.2 mi Calm Calm - N/A Fog Fog
6:35 AM 47.3 °F 45.7 °F 94% 29.91 in 0.2 mi NW 3.5 mph - N/A Fog Fog
6:55 AM 49.3 °F 47.8 °F 95% 29.92 in 0.2 mi Calm Calm - N/A   Light Drizzle
7:15 AM 48.4 °F 46.8 °F 94% 29.92 in 0.8 mi East 4.6 mph - N/A   Overcast
7:35 AM 47.5 °F 46.0 °F 95% 29.93 in 0.2 mi Calm Calm - N/A Fog Fog
7:55 AM 48.2 °F 46.8 °F 95% 29.93 in 0.2 mi Calm Calm - N/A Fog Fog
8:15 AM 48.7 °F 47.3 °F 95% 29.94 in 0.2 mi Calm Calm - N/A Fog Fog
8:35 AM 48.9 °F 47.5 °F 95% 29.95 in 0.2 mi Calm Calm - N/A Fog Fog
8:55 AM 49.5 °F 48.0 °F 95% 29.95 in 0.2 mi SE 3.5 mph - N/A Rain Light Rain
9:15 AM 49.8 °F 48.4 °F 95% 29.96 in 0.2 mi Calm Calm - N/A Fog Fog
9:35 AM 50.9 °F 49.6 °F 95% 29.96 in 0.2 mi SW 3.5 mph - N/A Fog Fog
9:55 AM 52.0 °F 50.7 °F 95% 29.96 in 0.2 mi Calm Calm - N/A Fog Fog
10:15 AM 52.0 °F 50.5 °F 95% 29.96 in 10.0 mi WNW 3.5 mph - N/A   Scattered Clouds
10:35 AM 53.8 °F 52.2 °F 94% 29.97 in 10.0 mi NNW 3.5 mph - N/A   Clear
10:55 AM 58.1 °F 52.3 °F 81% 29.97 in 10.0 mi Calm Calm - N/A   Clear
11:15 AM 62.2 °F 51.4 °F 68% 29.96 in 10.0 mi NE 3.5 mph - N/A   Clear
11:35 AM 64.6 °F 53.8 °F 68% 29.96 in 10.0 mi ENE 6.9 mph - N/A   Clear
11:55 AM 65.8 °F 54.0 °F 65% 29.95 in 10.0 mi East 6.9 mph - N/A   Clear
12:15 PM 68.4 °F 53.1 °F 58% 29.95 in 10.0 mi ESE 5.8 mph - N/A   Clear
12:35 PM 71.6 °F 50.0 °F 46% 29.94 in 10.0 mi ESE 4.6 mph - N/A   Clear
12:55 PM 74.5 °F 44.8 °F 35% 29.93 in 10.0 mi SE 5.8 mph - N/A   Clear
1:15 PM 78.1 °F 39.6 °F 25% 29.92 in 10.0 mi East 8.1 mph - N/A   Clear
1:35 PM 80.4 °F 34.2 °F 19% 29.91 in 10.0 mi Calm Calm - N/A   Clear
1:55 PM 81.9 °F 29.5 °F 15% 29.89 in 10.0 mi West 3.5 mph - N/A   Clear
2:15 PM 84.7 °F 28.6 °F 13% 29.88 in 10.0 mi NW 4.6 mph - N/A   Clear
2:35 PM 86.2 °F 27.3 °F 12% 29.85 in 10.0 mi South 4.6 mph 17.3 mph N/A   Clear
2:55 PM 88.0 °F 23.5 °F 10% 29.84 in 10.0 mi West 13.8 mph 23.0 mph N/A   Clear
3:15 PM 88.9 °F 23.0 °F 9% 29.83 in 10.0 mi SW 9.2 mph 23.0 mph N/A   Clear
3:35 PM 89.4 °F 23.7 °F 9% 29.82 in 10.0 mi SSW 15.0 mph 26.5 mph N/A   Clear
3:55 PM 88.3 °F 23.0 °F 9% 29.81 in 10.0 mi SW 17.3 mph - N/A   Clear
4:15 PM 88.0 °F 23.0 °F 9% 29.79 in 10.0 mi SSW 9.2 mph - N/A   Clear
4:35 PM 88.7 °F 23.4 °F 9% 29.79 in 10.0 mi South 8.1 mph - N/A   Clear
4:55 PM 88.2 °F 23.4 °F 9% 29.79 in 10.0 mi SSW 5.8 mph - N/A   Clear
5:15 PM 87.6 °F 23.7 °F 10% 29.78 in 10.0 mi SSE 3.5 mph - N/A   Clear
5:35 PM 87.3 °F 23.9 °F 10% 29.77 in 10.0 mi SE 4.6 mph - N/A   Clear
5:55 PM 86.9 °F 23.9 °F 10% 29.77 in 10.0 mi SE 4.6 mph - N/A   Clear
6:15 PM 85.8 °F 25.3 °F 11% 29.77 in 10.0 mi ESE 21.9 mph - N/A   Clear
6:35 PM 84.4 °F 28.8 °F 13% 29.77 in 10.0 mi ESE 23.0 mph 26.5 mph N/A   Clear
6:55 PM 82.9 °F 40.5 °F 22% 29.77 in 10.0 mi ESE 19.6 mph 25.3 mph N/A   Clear
7:15 PM 81.0 °F 45.1 °F 28% 29.77 in 10.0 mi ESE 21.9 mph 34.5 mph N/A   Clear
7:35 PM 79.2 °F 46.9 °F 32% 29.77 in 10.0 mi ESE 27.6 mph 32.2 mph N/A   Clear
7:55 PM 78.3 °F 48.9 °F 36% 29.77 in 10.0 mi ESE 24.2 mph 28.8 mph N/A   Clear
8:15 PM 75.9 °F 52.9 °F 45% 29.78 in 10.0 mi ESE 21.9 mph 26.5 mph N/A   Clear
8:35 PM 73.8 °F 54.7 °F 51% 29.79 in 10.0 mi ESE 16.1 mph - N/A   Clear
8:55 PM 72.3 °F 54.7 °F 54% 29.79 in 10.0 mi ESE 16.1 mph - N/A   Clear
9:35 PM 70.0 °F 53.1 °F 55% 29.80 in 10.0 mi East 11.5 mph - N/A   Clear
9:55 PM 68.0 °F 52.3 °F 57% 29.80 in 10.0 mi East 13.8 mph - N/A   Clear
10:15 PM 67.5 °F 52.0 °F 58% 29.81 in 10.0 mi East 11.5 mph - N/A   Clear
10:35 PM 66.2 °F 51.4 °F 59% 29.82 in 10.0 mi East 10.4 mph - N/A   Clear
10:55 PM 65.7 °F 50.4 °F 58% 29.82 in 10.0 mi East 9.2 mph - N/A   Clear
11:15 PM 65.3 °F 48.9 °F 55% 29.82 in 10.0 mi ESE 10.4 mph - N/A   Clear
11:35 PM 69.1 °F 47.3 °F 46% 29.82 in 10.0 mi SE 15.0 mph - N/A   Clear
11:55 PM 70.3 °F 48.0 °F 45% 29.81 in 10.0 mi SSE 18.4 mph - N/A   Clear